Wind_Speed
12 14 17 19 22 24 26 28 30 30 28 28 28 26 22 19 17 7 9 7 17 10 10 10 13 16 14 16 18 20 13 14 3 6 11 10 17 15 13 10 13 5 4 23 23
14 16 17 20 22 24 26 28 30 30 29 28 28 24 21 19 14 15 12 8 12 11 13 16 14 14 12 13 16 13 13 13 7 9 10 9 16 11 10 12 13 14 21 26 24
15 16 18 21 23 24 27 29 30 30 29 28 26 23 20 14 9 6 9 9 11 16 16 14 15 14 15 16 18 17 17 14 3 6 8 19 13 8 10 3 16 16 16 17 21
16 17 19 21 23 25 28 30 30 30 29 26 23 21 21 5 4 5 6 8 10 16 15 14 14 15 15 18 18 16 17 12 8 5 7 8 13 8 10 16 16 15 17 17 17
17 18 19 21 23 25 28 30 30 29 28 24 20 18 11 9 9 9 11 11 13 11 14 13 12 13 16 18 17 15 17 9 3 4 11 7 14 12 13 19 16 16 17 17 16
18 18 20 22 24 26 28 30 29 29 28 21 17 16 7 16 11 12 14 14 14 14 15 14 10 14 15 20 16 15 15 19 7 8 7 12 8 9 17 20 18 16 16 16 16
19 19 21 22 25 27 30 30 30 27 28 16 14 9 13 17 7 11 14 14 14 16 13 15 17 12 17 15 19 18 10 17 14 9 8 10 12 13 17 19 19 17 15 16 14
19 19 21 23 25 27 30 30 30 28 24 14 11 7 8 5 6 12 15 14 14 12 15 11 14 12 12 15 15 16 15 14 18 15 14 9 15 13 6 18 18 17 15 15 15
19 19 20 22 25 27 29 31 29 27 17 11 7 8 16 9 11 15 14 15 11 11 11 8 6 11 13 13 14 13 15 18 19 20 10 13 12 18 16 15 17 14 14 15 14
18 18 19 21 24 27 28 30 29 20 10 8 15 9 15 13 16 15 14 13 10 11 10 8 7 12 14 13 13 12 16 18 15 12 11 15 13 22 23 17 18 17 15 14 15
18 18 18 20 22 25 28 20 7 4 9 16 9 14 8 10 12 12 15 11 12 12 13 14 12 14 18 18 18 18 20 19 16 15 15 11 13 11 7 13 14 18 18 17 15
18 17 18 19 21 23 22 8 6 10 12 19 22 20 24 11 11 14 17 12 15 15 16 13 16 18 17 18 17 20 19 13 16 19 9 9 14 12 25 18 14 13 18 18 18
19 17 17 19 22 20 14 3 9 12 8 16 21 22 17 9 14 18 17 17 15 16 16 17 19 19 17 16 8 11 13 12 17 13 3 3 12 13 16 15 13 11 7 16 18
19 17 16 17 15 14 14 3 9 8 6 15 16 15 23 17 17 17 21 17 14 16 18 19 19 7 12 8 11 13 15 17 18 15 11 11 11 13 17 12 10 13 13 19 14
19 17 15 12 17 12 7 9 10 5 6 18 16 13 16 21 9 20 23 19 19 15 13 13 13 14 12 12 13 14 14 11 15 16 17 14 9 12 9 13 19 10 15 13 14
20 17 15 13 13 16 10 11 9 6 8 10 10 14 18 19 22 16 15 19 15 16 13 16 5 7 10 14 12 8 9 12 11 10 13 18 17 16 13 13 9 13 12 15 16
20 17 17 13 11 8 8 9 6 8 9 10 14 16 18 16 21 16 18 19 13 11 13 13 13 9 12 15 15 7 12 8 10 11 12 17 18 16 17 15 13 13 16 11 11
19 18 19 20 15 13 11 9 10 13 20 1 13 19 16 18 17 15 17 15 18 15 11 13 15 20 12 15 10 12 13 10 13 12 10 11 17 15 19 16 8 6 5 5 8
16 18 18 21 20 15 8 11 11 15 5 7 6 9 17 19 15 15 19 18 18 17 15 11 9 10 13 9 13 12 12 15 15 16 13 13 18 13 2 7 7 4 8 12 11
12 15 25 21 21 13 9 17 18 21 6 7 7 13 13 17 16 17 16 18 17 19 15 13 7 9 9 7 13 14 12 7 6 10 12 12 14 6 17 5 1 7 6 4 5
10 6 20 30 17 9 12 18 20 20 4 6 13 15 16 13 14 13 12 9 10 7 11 10 5 2 7 8 13 9 11 11 11 8 9 9 3 9 9 5 4 9 10 10 11
7 8 20 24 10 11 14 21 20 16 10 10 9 17 14 9 16 15 17 10 9 3 10 9 3 9 11 10 13 6 4 2 5 8 9 11 14 10 13 14 13 11 13 2 7
4 10 14 23 12 13 19 21 21 11 8 11 9 13 12 8 9 13 12 10 9 5 2 6 4 7 11 5 8 8 8 9 6 3 9 9 6 9 16 16 13 15 15 15 4
4 5 6 9 13 18 17 19 18 7 16 14 12 10 8 11 4 8 11 7 11 9 4 3 2 7 3 8 4 9 11 4 8 5 9 11 9 16 20 16 16 17 21 29 19
4 5 10 13 14 16 17 14 15 12 16 15 9 8 12 10 8 11 14 11 11 4 5 2 4 8 6 10 10 5 16 9 10 15 8 13 11 17 16 16 15 13 21 5 19
5 2 10 12 18 19 13 14 17 19 15 14 10 15 13 10 12 13 14 11 13 9 7 2 3 6 10 12 13 14 13 13 12 13 13 8 13 17 16 17 17 18 15 14 15
7 14 7 5 17 16 14 14 11 13 12 18 18 14 11 12 13 13 11 13 8 10 7 4 2 5 8 13 14 8 5 7 4 15 15 12 14 17 19 16 16 14 13 12 13
Wind_Direction
328 332 338 340 343 344 344 342 342 341 339 336 335 333 326 323 317 289 246 234 217 243 199 207 219 233 242 253 248 255 273 289 142 99 115 151 111 82 100 128 71 46 170 151 153
321 326 334 337 339 342 341 341 340 339 337 335 333 332 323 325 305 260 241 223 189 208 190 207 213 218 225 236 245 241 260 254 347 24 73 126 104 114 142 141 115 90 106 134 161
316 322 328 333 336 338 338 338 338 335 334 333 331 329 321 331 282 194 198 208 207 193 203 209 224 219 230 236 235 232 253 318 88 21 320 112 136 129 182 180 137 135 140 149 166
311 317 323 328 332 334 334 337 334 332 331 330 328 324 320 291 322 106 137 157 182 185 230 240 240 228 235 236 240 239 257 289 60 106 261 260 125 116 77 92 109 137 146 159 170
304 309 316 323 327 331 332 334 332 328 327 327 322 319 329 253 250 137 141 151 162 179 230 222 224 241 233 246 239 240 265 254 272 224 260 258 148 128 119 107 121 138 149 163 175
298 307 314 320 325 328 329 330 327 324 323 319 313 315 279 270 110 146 148 159 178 204 233 217 218 224 239 254 244 238 249 275 228 230 225 268 161 167 123 127 136 150 160 165 179
295 303 309 316 322 326 328 326 322 319 319 311 303 310 277 257 141 164 169 182 204 213 231 225 236 221 240 283 278 256 230 254 272 226 242 238 262 176 143 142 148 162 168 169 186
292 300 308 315 321 325 327 322 316 312 309 302 289 283 264 170 213 177 190 200 213 222 249 235 245 275 240 247 266 264 258 260 237 235 227 209 245 20 147 156 159 170 171 173 189
286 294 304 312 320 323 320 317 310 306 296 286 274 217 265 169 215 203 201 213 204 224 238 279 227 243 243 244 255 234 238 232 261 210 222 203 239 141 202 178 164 174 174 182 182
280 289 302 311 317 320 316 315 302 290 284 253 264 267 246 222 196 193 202 222 198 211 208 220 220 229 235 222 232 216 227 257 243 179 201 241 231 191 201 181 172 171 186 191 185
277 286 297 307 311 318 316 327 303 184 268 258 292 232 275 187 138 199 198 205 202 207 214 205 217 217 223 229 236 258 221 225 257 245 192 224 254 145 294 190 197 178 181 187 198
269 280 291 299 304 308 299 302 20 307 298 278 265 246 264 198 198 210 191 210 199 209 212 216 227 237 228 236 220 249 266 285 277 273 216 193 250 248 182 197 208 213 187 188 186
263 273 285 296 302 292 254 319 312 310 278 285 237 224 225 228 232 201 191 212 202 218 214 234 226 214 246 232 258 266 270 266 264 284 67 224 260 283 267 190 191 215 220 206 191
257 266 281 299 297 286 281 343 320 333 275 244 205 214 211 204 230 227 192 212 228 220 228 224 254 246 226 239 237 244 243 245 267 268 259 186 251 256 266 245 212 199 195 233 220
250 259 272 281 303 285 357 316 321 271 281 144 172 196 185 198 179 220 181 218 237 216 237 234 235 251 237 237 234 261 282 280 238 258 274 238 217 248 253 232 223 212 257 267 239
244 253 270 264 241 253 286 304 281 234 241 151 142 183 179 204 230 181 190 217 234 254 230 258 299 271 224 249 254 277 272 267 280 267 252 251 265 263 257 231 247 197 225 250 254
239 246 255 272 241 328 298 277 228 237 237 151 164 182 196 193 211 180 197 205 222 225 235 227 238 221 251 238 240 214 251 243 230 231 246 242 243 250 257 267 237 210 216 259 255
235 248 254 246 261 268 277 246 242 228 248 16 182 171 191 191 215 166 192 200 220 234 249 218 218 210 199 248 218 209 241 248 257 244 273 309 237 253 236 239 58 24 326 334 319
236 252 245 241 237 243 244 228 221 250 294 171 242 195 194 186 205 182 203 214 202 228 243 280 225 150 184 208 264 256 209 235 268 284 285 282 288 284 100 185 190 160 246 239 240
229 241 237 223 210 212 230 242 244 253 346 318 255 215 206 192 196 189 197 212 217 203 227 271 299 149 188 231 249 255 274 288 247 272 276 278 286 29 27 49 250 240 320 143 94
231 232 226 210 178 221 225 232 240 263 285 252 270 298 249 193 186 192 209 199 204 154 190 246 267 278 133 209 238 214 252 258 285 305 310 299 73 48 22 185 302 320 342 67 63
240 221 182 164 192 217 224 232 254 280 173 241 264 279 296 263 184 219 230 155 173 184 214 225 299 258 220 222 225 294 333 7 256 263 262 279 289 324 37 4 10 357 347 104 97
239 223 179 188 206 215 223 237 236 238 261 216 243 261 312 286 209 108 89 101 139 166 78 202 222 262 264 231 234 254 266 266 261 10 282 291 297 355 45 24 13 344 3 340 341
269 200 178 205 228 228 218 215 228 193 240 233 232 257 258 271 245 97 134 141 165 88 52 335 244 269 282 332 209 317 326 323 259 229 279 266 317 12 31 3 10 11 2 327 51
243 178 242 186 211 232 247 233 213 206 229 231 223 233 239 243 237 138 215 152 129 94 154 14 251 268 271 225 186 210 263 259 251 255 248 301 26 29 6 359 357 16 120 328 71
295 337 224 218 202 210 219 257 198 211 191 224 214 221 229 230 235 262 154 172 155 162 163 107 232 303 297 298 280 272 264 276 276 282 288 278 48 4 4 355 10 27 55 57 60
256 266 256 215 198 202 212 220 232 220 191 207 203 232 231 213 63 75 70 313 227 164 147 160 309 299 280 299 292 253 333 269 318 41 26 10 25 8 354 17 6 26 65 65 64
Height
818 816 814 812 808 804 800 796 791 787 783 779 775 771 767 763 759 758 753 747 748 750 751 751 752 749 747 741 734 728 752 745 728 721 727 712 723 722 726 737 739 744 742 758 769
817 815 812 810 807 803 799 795 790 785 781 778 774 770 765 761 758 754 747 745 746 748 751 748 747 745 745 739 733 741 751 736 708 705 718 711 720 725 734 738 747 750 752 760 768
816 813 810 808 805 801 798 793 788 784 780 777 773 769 765 762 757 739 742 743 744 747 749 746 743 741 746 735 732 732 744 715 710 709 705 717 723 719 729 744 741 753 757 762 766
815 812 810 808 804 800 797 792 787 782 778 775 771 768 764 764 758 740 740 742 745 748 751 745 741 745 748 746 724 741 721 714 709 710 712 713 712 726 724 734 735 743 752 761 765
814 813 809 806 803 798 794 790 785 781 776 773 770 767 765 757 742 741 741 743 746 750 749 742 746 746 752 737 727 733 723 712 709 712 711 704 715 720 726 726 736 745 752 759 764
812 809 807 804 801 796 792 786 783 778 774 772 769 766 765 759 738 740 742 745 747 749 744 740 740 738 742 735 732 721 721 715 710 712 711 717 713 715 724 724 737 746 752 757 761
811 808 805 803 798 793 788 783 779 775 772 770 767 767 760 748 737 742 743 745 745 743 739 737 735 735 735 741 722 720 733 723 714 712 717 711 728 727 719 725 737 744 749 754 759
807 805 803 800 795 790 785 780 775 771 768 767 765 767 753 735 737 739 741 742 741 741 738 735 733 732 732 727 729 738 733 752 720 713 709 717 747 738 720 722 738 740 745 751 756
805 804 802 798 793 789 784 777 770 766 765 764 764 762 747 734 736 735 737 736 737 739 738 735 736 741 737 751 752 742 762 749 731 703 711 720 738 738 744 719 733 738 742 747 752
803 802 799 795 792 788 782 770 763 761 762 764 761 761 737 731 728 732 734 734 735 737 741 742 744 752 747 749 774 761 760 744 736 712 713 720 725 719 714 716 724 729 736 742 747
799 798 797 794 791 787 779 768 760 759 759 748 739 740 723 722 726 730 732 734 732 738 753 742 755 758 743 736 733 734 735 739 720 700 715 723 721 720 724 713 719 720 727 733 739
798 797 795 793 789 784 780 772 771 772 766 746 736 732 723 721 732 728 729 737 738 750 742 744 757 730 721 721 728 731 737 737 719 702 711 720 727 707 712 710 712 714 718 722 727
795 795 794 792 787 781 775 773 771 768 767 736 722 726 723 724 728 725 724 728 735 743 739 746 727 716 721 725 734 733 739 739 736 713 711 724 737 725 706 698 704 706 709 711 715
793 793 792 790 788 776 769 770 769 768 774 733 719 715 718 721 731 711 717 724 726 738 732 732 715 720 725 736 732 751 724 728 729 733 752 721 771 739 719 710 703 704 709 713 704
790 791 790 790 783 774 769 769 768 768 787 704 711 701 706 721 712 716 710 718 731 727 725 732 727 727 736 733 724 738 716 722 726 736 737 735 752 735 712 718 708 702 701 698 696
786 787 787 784 782 772 769 768 768 780 775 714 706 716 719 717 715 708 713 713 710 721 717 722 705 715 723 719 718 716 727 729 730 738 765 743 744 738 720 710 701 698 695 693 691
783 784 784 783 771 768 769 766 780 773 704 712 715 710 714 723 715 714 726 732 739 752 744 731 725 719 716 731 720 728 745 770 775 768 768 725 735 725 701 690 688 690 692 685 683
780 781 778 776 772 770 769 770 782 729 720 690 696 705 722 713 713 714 726 736 727 728 736 747 752 721 714 727 731 734 741 763 780 766 747 714 738 714 678 674 680 681 684 684 684
778 776 775 769 770 769 767 773 756 729 703 702 703 713 714 709 713 716 724 730 721 721 744 737 731 698 709 714 720 731 744 725 748 737 749 731 708 683 675 679 679 684 685 683 680
775 771 762 761 762 765 765 764 737 713 714 709 723 711 720 708 716 716 721 710 715 707 710 724 746 714 713 715 715 724 713 748 740 777 780 744 730 730 702 692 685 686 683 680 679
775 760 746 750 757 759 761 748 733 718 713 725 723 719 706 706 710 714 714 705 701 706 707 719 735 733 721 735 735 732 738 734 733 744 766 765 742 697 704 697 695 689 683 685 686
765 753 732 743 757 749 749 738 725 717 713 721 717 717 709 704 706 709 714 707 698 707 729 721 735 751 735 709 706 713 724 728 751 761 745 748 743 694 697 692 691 689 685 680 682
755 742 736 739 750 743 735 729 721 721 721 722 722 711 701 708 717 710 713 706 706 713 730 723 745 762 750 732 718 728 722 724 730 741 762 766 749 695 697 704 700 700 694 695 689
752 743 734 736 732 730 729 728 725 715 720 715 715 707 712 712 700 731 724 715 710 716 732 728 737 750 777 758 750 749 736 726 734 757 750 742 734 720 723 720 713 718 725 713 707
754 734 740 735 734 729 725 717 725 730 721 714 720 718 719 726 713 731 728 722 717 731 727 731 752 741 736 737 740 750 745 741 745 742 750 737 739 741 734 726 719 720 741 738 734
754 734 727 717 720 726 727 723 722 720 723 724 728 720 713 722 715 719 714 723 727 727 730 735 753 745 751 737 735 740 730 730 729 728 728 731 753 733 728 723 722 724 727 728 728
750 741 730 727 716 720 720 723 718 711 712 716 719 718 718 711 708 711 723 727 719 729 734 743 748 755 762 740 736 747 735 730 726 728 737 756 756 743 741 739 736 732 736 739 740